This is the latest recevied weather packets stored in our database for station/object WB4ZUT. If no packets are shown the sender has not sent any weather packets the latest 10 day(s).
| Time | Temp. | Humidity | Pressure | Rain* | Wind** | Luminosity | Snow |
|---|---|---|---|---|---|---|---|
| 1777843178 | 20° C | 45% | 1014.3 hPa | 0 mm | - | 473 W/m² | - |
| 1777842875 | 20° C | 45% | 1014.5 hPa | 0 mm | - | 490 W/m² | - |
| 1777842570 | 20° C | 48% | 1014.4 hPa | 0 mm | - | 492 W/m² | - |
| 1777842268 | 20° C | 46% | 1014.1 hPa | 0 mm | - | 507 W/m² | - |
| 1777841963 | 19.44° C | 44% | 1014.8 hPa | 0 mm | - | 537 W/m² | - |
| 1777841660 | 20° C | 45% | 1014.7 hPa | 0 mm | - | 549 W/m² | - |
| 1777841356 | 19.44° C | 46% | 1014.9 hPa | 0 mm | - | 548 W/m² | - |
| 1777841053 | 19.44° C | 45% | 1014.9 hPa | 0 mm | - | 522 W/m² | - |
| 1777840750 | 19.44° C | 43% | 1015.2 hPa | 0 mm | - | 507 W/m² | - |
| 1777840448 | 19.44° C | 44% | 1015.2 hPa | 0 mm | - | 560 W/m² | - |
| 1777840144 | 20° C | 44% | 1015.2 hPa | 0 mm | - | 576 W/m² | - |
| 1777839843 | 19.44° C | 47% | 1015.4 hPa | 0 mm | - | 602 W/m² | - |
| 1777839541 | 19.44° C | 45% | 1015.3 hPa | 0 mm | - | 621 W/m² | - |
| 1777839237 | 19.44° C | 47% | 1015.7 hPa | 0 mm | - | 621 W/m² | - |
| 1777838935 | 19.44° C | 47% | 1016 hPa | 0 mm | - | 652 W/m² | - |
| 1777838630 | 20° C | 46% | 1016.1 hPa | 0 mm | - | 630 W/m² | - |
| 1777838328 | 18.89° C | 46% | 1016.1 hPa | 0 mm | - | 624 W/m² | - |
| 1777838024 | 18.89° C | 47% | 1016.3 hPa | 0 mm | - | 623 W/m² | - |
| 1777837722 | 18.89° C | 47% | 1016.4 hPa | 0 mm | - | 609 W/m² | - |
| 1777837418 | 18.89° C | 47% | 1016.5 hPa | 0 mm | - | 618 W/m² | - |
| 1777837114 | 18.89° C | 47% | 1016.7 hPa | 0 mm | - | 641 W/m² | - |
| 1777836810 | 18.89° C | 48% | 1016.6 hPa | 0 mm | - | 659 W/m² | - |
| 1777836506 | 18.89° C | 47% | 1016.6 hPa | 0 mm | - | 667 W/m² | - |
| 1777836202 | 19.44° C | 48% | 1016.8 hPa | 0 mm | - | 704 W/m² | - |
| 1777835898 | 18.89° C | 50% | 1016.8 hPa | 0 mm | - | 698 W/m² | - |
* Rain latest hour (hover to see other rain measurements)
** Current wind speed in m/s (hover to see current wind gust speed)